Regional Weather Roundup
Issued by NWS Albany, NY

Home | Current Version | Previous Version | Text Only | Print | Product List | Glossary On
Versions: 1 2 3 4 5 6 7 8 9 10 11 12 13 14 15 16 17 18 19 20 21 22 23 24 25 26 27
000
ASUS41 KALY 282210
RWRALY

NEW YORK STATE HOURLY WEATHER ROUNDUP
NATIONAL WEATHER SERVICE ALBANY NY
600 PM EDT TUE MAR 28 2017

NOTE: "FAIR" INDICATES FEW OR NO CLOUDS BELOW 12,000 FEET WITH NO
SIGNIFICANT WEATHER AND/OR NO OBSTRUCTIONS TO VISIBILITY.

NYZ032-033-038>043-046>054-057>066-NYZ062>081-082-084-282300-
EAST


CITY           SKY/WX    TMP DP  RH WIND       PRES   REMARKS
ALBANY         LGT RAIN  47  44  90 S3        29.89F FOG
GLENS FALLS    CLOUDY    48  44  86 S6        29.89S
POUGHKEEPSIE   LGT RAIN  44  42  93 CALM      29.90R
NEWBURGH       CLOUDY    45  45 100 E8        29.90R FOG
MONTGOMERY     LGT RAIN  47  45  93 SE3       29.89R FOG
WHITE PLAINS   LGT RAIN  41  39  93 E8        29.89R FOG
ISLIP          FOG       44  44 100 E9        29.87S VSB 3/4
NEW YORK CITY  CLOUDY    43  39  86 NE14      29.89R
CENTRAL PARK   CLOUDY    42  40  92 NE8       29.91S
$$

NYZ005>009-017-018-044>046-055-056-282300-
CENTRAL


CITY           SKY/WX    TMP DP  RH WIND       PRES   REMARKS
FULTON         CLOUDY    43  39  86 N8        29.98R
SYRACUSE       CLOUDY    43  41  93 W10       29.96R
ROME           CLOUDY    46  43  89 VRB7      29.94R
ELMIRA         CLOUDY    48  44  86 NE10      29.94R
BINGHAMTON     LGT RAIN  47  47 100 N13       29.89R VSB 3/4
MONTICELLO     CLOUDY    43  43 100 S6        29.89R
$$

NYZ026>034-041>043-087-282300-
NORTH


CITY           SKY/WX    TMP DP  RH WIND       PRES   REMARKS
WATERTOWN      CLOUDY    42  40  92 NE10      30.00R
FORT DRUM      NOT AVBL
MASSENA        CLOUDY    42  37  82 NW7       30.01R
SARANAC LAKE   CLOUDY    38  37  97 N6        29.92R WCI  33
PLATTSBURGH    CLOUDY    38  36  92 N8        29.98R WCI  32
$$

NYZ001>004-010>016-019>021-085-282300-
WEST


CITY           SKY/WX    TMP DP  RH WIND       PRES   REMARKS
NIAGARA FALLS  CLOUDY    48  38  68 N10       30.02R
BUFFALO        CLOUDY    46  39  76 N10       30.02R
DUNKIRK        CLOUDY    44  38  79 N3        30.03R
JAMESTOWN      CLOUDY    43  39  87 N9        29.99R
WELLSVILLE     FOG       46  45  96 N8        29.96R VSB<1/4
ROCHESTER      LGT RAIN  44  42  93 E3        30.02R FOG
PENN YAN       CLOUDY    45  40  82 N8        29.99R
$$

             KEY
       WCI = WIND CHILL INDEX
       VSB = VISIBILITY
       HX  = HEAT INDEX
$$




USA.gov is the U.S. government's official web portal to all federal, state and local government web resources and services.